Tiempo cada hora Ababuj

Hoy, 24 Junio, Jueves

Tiempo Temperatura Precipitaciones Viento Presión Humedad
00:00 +9°C° 0 mm 1 mps 650 mmHg 86%
01:00 +8°C° 0 mm 1 mps 650 mmHg 86%
02:00 +8°C° 0 mm 1 mps 649 mmHg 86%
03:00 +8°C° 0 mm 1 mps 649 mmHg 87%
04:00 +8°C° 0 mm 1 mps 650 mmHg 84%
05:00 +9°C° 0 mm 1 mps 650 mmHg 81%
06:00 +10°C° 0 mm 1 mps 650 mmHg 78%
07:00 +11°C° 0 mm 1 mps 651 mmHg 71%
08:00 +13°C° 0 mm 1 mps 651 mmHg 64%
09:00 +15°C° 0 mm 1 mps 652 mmHg 57%
10:00 +16°C° 0 mm 2 mps 652 mmHg 53%
11:00 +18°C° 0 mm 2 mps 652 mmHg 49%
12:00 +19°C° 0 mm 2 mps 653 mmHg 45%
13:00 +19°C° 0 mm 2 mps 653 mmHg 45%
14:00 +20°C° 0 mm 2 mps 652 mmHg 46%
15:00 +20°C° 0 mm 2 mps 652 mmHg 46%
16:00 +19°C° 0 mm 2 mps 652 mmHg 49%
17:00 +19°C° 0 mm 3 mps 652 mmHg 51%
18:00 +18°C° 0 mm 3 mps 652 mmHg 54%
19:00 +17°C° 0 mm 3 mps 652 mmHg 60%
20:00 +15°C° 0 mm 2 mps 652 mmHg 65%
21:00 +14°C° 0 mm 2 mps 652 mmHg 71%
22:00 +13°C° 0 mm 2 mps 652 mmHg 73%
23:00 +13°C° 0 mm 1 mps 652 mmHg 76%

Mañana, 25 Junio, Viernes

Tiempo Temperatura Precipitaciones Viento Presión Humedad
00:00 +12°C° 0 mm 1 mps 651 mmHg 78%
01:00 +12°C° 0 mm 1 mps 651 mmHg 80%
02:00 +12°C° 0 mm 1 mps 651 mmHg 81%
03:00 +12°C° 0 mm 1 mps 651 mmHg 82%
04:00 +12°C° 0 mm 1 mps 651 mmHg 79%
05:00 +13°C° 0 mm 1 mps 651 mmHg 75%
06:00 +14°C° 0 mm 1 mps 651 mmHg 71%
07:00 +16°C° 0 mm 1 mps 652 mmHg 63%
08:00 +18°C° 0 mm 2 mps 652 mmHg 56%
09:00 +20°C° 0 mm 2 mps 653 mmHg 48%
10:00 +21°C° 0 mm 3 mps 653 mmHg 45%
11:00 +22°C° 0 mm 3 mps 653 mmHg 41%
12:00 +25°C° 0 mm 4 mps 653 mmHg 37%
13:00 +25°C° 0 mm 4 mps 653 mmHg 36%
14:00 +26°C° 0 mm 4 mps 652 mmHg 34%
15:00 +26°C° 0 mm 4 mps 652 mmHg 33%
16:00 +25°C° 0 mm 4 mps 651 mmHg 38%
17:00 +23°C° 0 mm 4 mps 651 mmHg 43%
18:00 +22°C° 0 mm 4 mps 650 mmHg 48%
19:00 +20°C° 0 mm 3 mps 650 mmHg 55%
20:00 +18°C° 0 mm 3 mps 650 mmHg 63%
21:00 +17°C° 0 mm 3 mps 650 mmHg 71%
22:00 +16°C° 0 mm 3 mps 650 mmHg 73%
23:00 +16°C° 0 mm 3 mps 650 mmHg 75%

Pasado mañana, 26 Junio, Sábado

Tiempo Temperatura Precipitaciones Viento Presión Humedad
00:00 +14°C° 0 mm 3 mps 650 mmHg 78%
01:00 +14°C° 0 mm 3 mps 649 mmHg 78%
02:00 +14°C° 0 mm 3 mps 649 mmHg 78%
03:00 +13°C° 0 mm 3 mps 649 mmHg 78%
04:00 +15°C° 0 mm 2 mps 649 mmHg 73%
05:00 +16°C° 0 mm 2 mps 649 mmHg 69%
06:00 +17°C° 0 mm 2 mps 649 mmHg 64%
07:00 +19°C° 0 mm 3 mps 650 mmHg 56%
08:00 +21°C° 0 mm 4 mps 650 mmHg 47%
09:00 +23°C° 0 mm 5 mps 650 mmHg 39%
10:00 +25°C° 0 mm 5 mps 651 mmHg 36%
11:00 +27°C° 0 mm 6 mps 651 mmHg 33%
12:00 +28°C° 0 mm 6 mps 651 mmHg 30%
13:00 +28°C° 0 mm 7 mps 650 mmHg 29%
14:00 +28°C° 0 mm 8 mps 650 mmHg 28%
15:00 +29°C° 0 mm 8 mps 650 mmHg 28%
16:00 +27°C° 0 mm 8 mps 649 mmHg 32%
17:00 +26°C° 0 mm 8 mps 649 mmHg 36%
18:00 +24°C° 0 mm 7 mps 648 mmHg 41%
19:00 +22°C° 0 mm 6 mps 648 mmHg 47%
20:00 +21°C° 0 mm 5 mps 648 mmHg 53%
21:00 +19°C° 0 mm 4 mps 648 mmHg 60%
22:00 +18°C° 0 mm 4 mps 648 mmHg 60%
23:00 +17°C° 0 mm 4 mps 647 mmHg 61%

27 Junio, Domingo

Tiempo Temperatura Precipitaciones Viento Presión Humedad
00:00 +17°C° 0 mm 4 mps 647 mmHg 62%
01:00 +16°C° 0 mm 3 mps 647 mmHg 61%
02:00 +16°C° 0 mm 3 mps 646 mmHg 60%
03:00 +16°C° 0 mm 3 mps 646 mmHg 60%
04:00 +17°C° 0 mm 3 mps 646 mmHg 58%
05:00 +17°C° 0 mm 3 mps 646 mmHg 56%
06:00 +18°C° 0 mm 2 mps 647 mmHg 54%
07:00 +19°C° 0 mm 4 mps 647 mmHg 47%
08:00 +21°C° 0 mm 6 mps 647 mmHg 39%
09:00 +22°C° 0 mm 7 mps 647 mmHg 32%
10:00 +23°C° 0 mm 7 mps 648 mmHg 28%
11:00 +24°C° 0 mm 8 mps 648 mmHg 24%
12:00 +26°C° 0 mm 8 mps 648 mmHg 20%
13:00 +26°C° 0 mm 8 mps 648 mmHg 20%
14:00 +27°C° 0 mm 9 mps 648 mmHg 21%
15:00 +27°C° 0 mm 9 mps 648 mmHg 21%
16:00 +24°C° 0 mm 8 mps 648 mmHg 27%
17:00 +23°C° 0 mm 6 mps 647 mmHg 33%
18:00 +21°C° 0 mm 5 mps 647 mmHg 40%
19:00 +19°C° 0 mm 4 mps 647 mmHg 49%
20:00 +16°C° 0 mm 3 mps 647 mmHg 58%
21:00 +14°C° 0 mm 2 mps 647 mmHg 68%
22:00 +13°C° 0 mm 2 mps 647 mmHg 72%
23:00 +12°C° 0 mm 2 mps 647 mmHg 77%

28 Junio, Lunes

Tiempo Temperatura Precipitaciones Viento Presión Humedad
00:00 +10°C° 0 mm 2 mps 647 mmHg 81%
01:00 +9°C° 0 mm 2 mps 647 mmHg 80%
02:00 +10°C° 0 mm 1 mps 647 mmHg 79%
03:00 +10°C° 0 mm 1 mps 647 mmHg 78%
04:00 +10°C° 0 mm 1 mps 647 mmHg 72%
05:00 +11°C° 0 mm 1 mps 647 mmHg 67%
06:00 +11°C° 0 mm 0 mps 648 mmHg 61%
07:00 +14°C° 0 mm 1 mps 648 mmHg 55%
08:00 +15°C° 0 mm 1 mps 649 mmHg 48%
09:00 +17°C° 0 mm 2 mps 650 mmHg 42%
10:00 +18°C° 0 mm 2 mps 650 mmHg 38%
11:00 +20°C° 0 mm 2 mps 650 mmHg 34%
12:00 +21°C° 0 mm 3 mps 651 mmHg 30%
13:00 +22°C° 0 mm 3 mps 650 mmHg 27%
14:00 +24°C° 0 mm 3 mps 650 mmHg 25%
15:00 +25°C° 0 mm 4 mps 650 mmHg 22%
16:00 +23°C° 0 mm 4 mps 650 mmHg 27%
17:00 +21°C° 0 mm 4 mps 650 mmHg 32%
18:00 +20°C° 0 mm 5 mps 650 mmHg 37%
19:00 +18°C° 0 mm 4 mps 650 mmHg 43%
20:00 +17°C° 0 mm 3 mps 650 mmHg 50%
21:00 +15°C° 0 mm 2 mps 650 mmHg 56%
22:00 +14°C° 0 mm 2 mps 650 mmHg 60%
23:00 +13°C° 0 mm 2 mps 650 mmHg 63%

29 Junio, Martes

Tiempo Temperatura Precipitaciones Viento Presión Humedad
00:00 +13°C° 0 mm 1 mps 650 mmHg 66%
01:00 +12°C° 0 mm 1 mps 650 mmHg 68%
02:00 +12°C° 0 mm 1 mps 650 mmHg 70%
03:00 +11°C° 0 mm 1 mps 650 mmHg 72%
04:00 +12°C° 0 mm 1 mps 650 mmHg 70%
05:00 +12°C° 0 mm 1 mps 650 mmHg 67%
06:00 +13°C° 0 mm 1 mps 650 mmHg 65%
07:00 +15°C° 0 mm 1 mps 651 mmHg 59%
08:00 +16°C° 0 mm 1 mps 651 mmHg 53%
09:00 +19°C° 0 mm 1 mps 652 mmHg 47%
10:00 +20°C° 0 mm 2 mps 652 mmHg 43%
11:00 +21°C° 0 mm 2 mps 652 mmHg 39%
12:00 +22°C° 0 mm 3 mps 652 mmHg 35%
13:00 +22°C° 0 mm 3 mps 652 mmHg 37%
14:00 +22°C° 0 mm 4 mps 652 mmHg 39%
15:00 +22°C° 0 mm 4 mps 652 mmHg 40%
16:00 +21°C° 0.1 mm 4 mps 651 mmHg 45%
17:00 +20°C° 0.1 mm 4 mps 651 mmHg 50%
18:00 +19°C° 0.1 mm 4 mps 651 mmHg 54%
19:00 +18°C° 0 mm 4 mps 651 mmHg 58%
20:00 +17°C° 0 mm 3 mps 651 mmHg 62%
21:00 +15°C° 0 mm 2 mps 651 mmHg 66%
22:00 +15°C° 0 mm 2 mps 651 mmHg 69%
23:00 +14°C° 0 mm 2 mps 651 mmHg 72%
Mostrar más

Necesitamos Su Consentimiento

Meteoprog y nuestros Proveedores de Servicios pueden almacenar y acceder a sus datos personales como cookies, identificadores de dispositivo u otras tecnologías similares de su dispositivo y procesar dichos datos para personalizar contenido y anuncios, además de ofrecer funciones de redes sociales y analizar el tráfico.

  • Almacenar y/o acceder a información en su dispositivo

    Se puede almacenar o acceder a cookies, identificadores de dispositivo u otra información de su dispositivo para los fines anteriormente indicados.

  • Anuncios y contenido personalizados, medición de anuncios y contenido, percepciones del público, y desarrollo de productos

    Los anuncios y el contenido pueden personalizarse en base a su perfil. Se pueden añadir más datos para personalizar mejor los anuncios y contenidos. Se puede medir el rendimiento de los anuncios y contenidos. Se puede obtener la percepción sobre el público que ha visto los anuncios y contenidos. Dichos datos pueden usarse para desarrollar o mejorar la experiencia del usuario, sistemas y software.

Al hacer clic en ‘Estoy De Acuerdo’ usted permitirá el uso de las cookies, identificadores de dispositivo, balizas web u otras tecnologías similares indicadas. Su configuración puede cambiarse desde el navegador de su dispositivo.

Para ciertos fines, los intereses legítimos pueden ser considerados por encima del consentimiento. Puede leer más sobre ello en nuestra Política de Privacidad y Cookies.